Regional Weather Roundup
Issued by NWS Glasgow, MT

Home | Current Version | Previous Version | Text Only | Print | Product List | Glossary On
Versions: 1 2 3 4 5 6 7 8 9 10 11 12 13 14 15 16 17 18 19 20 21 22 23 24 25 26 27 28
000
ASUS45 KGGW 192315
RWRGGW
HOURLY REGIONAL WEATHER ROUNDUP FOR NORTHEAST MONTANA
NATIONAL WEATHER SERVICE GLASGOW MONTANA
500 PM MDT THU OCT 19 2017

NOTE: "FAIR" INDICATES FEW OR NO CLOUDS BELOW 12,000 FEET WITH NO
SIGNIFICANT WEATHER AND/OR OBSTRUCTIONS TO VISISBILITY.

NORTHEAST MONTANA


CITY           SKY/WX    TMP DP  RH WIND       PRES   REMARKS
GLASGOW        CLEAR     79  21  11 SW9       29.57F
WOLF POINT     CLEAR     82  20  10 W8        29.58F
JORDAN           N/A     78  27  15 S12       29.60F
WINNETT          N/A     77  23  13 S16G25      N/A
SIDNEY         CLEAR     74  36  25 S7        29.63
GLENDIVE       CLEAR     76  33  21 S8        29.66F

FORT PECK REPORTS


CITY           SKY/WX    TMP DP  RH WIND       PRES   REMARKS
FORT PECK        N/A     76  34  21 SE12G20     N/A
THE PINES        N/A     78  29  16 S7          N/A

SOUTHEAST MONTANA


CITY           SKY/WX    TMP DP  RH WIND       PRES   REMARKS
BILLINGS       MOSUNNY   78  21  12 SW13      29.65F
MILES CITY     SUNNY     80  29  15 S8        29.64F
BAKER          CLEAR     77  33  20 S8        29.71F
LIVINGSTON     SUNNY     73  10   9 SW31G40   29.67F

CENTRAL MONTANA


CITY           SKY/WX    TMP DP  RH WIND       PRES   REMARKS
HAVRE          MOSUNNY   74  20  13 SW10      29.52F
LEWISTOWN      CLOUDY    72  20  14 S9        29.63F
GREAT FALLS    CLOUDY    73  18  12 SW9       29.55F
CUT BANK       PTSUNNY   68  16  13 W22       29.52F
HELENA         CLOUDY    75  16  10 S14       29.59F
BUTTE          CLOUDY    69  12  11 S17G24    29.69F
BOZEMAN        SUNNY     73  13  10 SW10      29.67S

WESTERN MONTANA


CITY           SKY/WX    TMP DP  RH WIND       PRES   REMARKS
MISSOULA       MOSUNNY   70  35  27 E3        29.56F
KALISPELL      NOT AVBL

NORTH DAKOTA


CITY           SKY/WX    TMP DP  RH WIND       PRES   REMARKS
WILLISTON      CLEAR     77  33  20 S7        29.63F
DICKINSON      CLEAR     77  31  18 S5        29.69F
MINOT          CLEAR     77  33  20 S10       29.65S
BISMARCK       CLEAR     73  37  27 SE13      29.71F

SOUTHERN SASKATCHEWAN


CITY           SKY/WX    TMP DP  RH WIND       PRES   REMARKS
REGINA         MOCLDY    72  28  20 W7        29.52S
MOOSE JAW      MOCLDY    73  32  21 SW5       29.53S
ESTEVAN        PTCLDY    72  36  26 S6        29.60S
SWIFT CURRENT  CLEAR     66  27  22 SW14      29.51S





USA.gov is the U.S. government's official web portal to all federal, state and local government web resources and services.